Weather History for Baltimore, MD

Change the Weather History Date:

Thursday, May 8, 2014

  Actual Average Record
Temperature  
Mean Temperature 71 °F 61 °F  
Max Temperature 85 °F 72 °F 93 °F (1930)
Min Temperature 56 °F 49 °F 33 °F (1997)
Degree Days  
Heating Degree Days 0 6  
Month to date heating degree days 36 52  
Since 1 July heating degree days 4966 4667  
Cooling Degree Days 6 1  
Month to date cooling degree days 10 8  
Year to date cooling degree days 17 22  
Growing Degree Days 19 (Base 50)    
Moisture  
Dew Point 56 °F    
Average Humidity 70    
Maximum Humidity 93    
Minimum Humidity 47    
Precipitation  
Precipitation T in 0.12 in 3.28 in (1960)
Month to date precipitation 0.47 0.93  
Year to date precipitation 20.74 13.97  
Snow  
Snow 0.00 in 0.00 in - ()
Month to date snowfall 0.0 0.0  
Since 1 July snowfall 39.0 20.1  
Snow Depth 0.00 in    
Sea Level Pressure  
Sea Level Pressure 30.10 in    
Wind  
Wind Speed 5 mph (East)    
Max Wind Speed 14 mph    
Max Gust Speed 16 mph    
Visibility 7 miles    
Events Rain    
T = Trace of Precipitation, MM = Missing Value Source: NWS Daily Summary

Daily Weather History Graph

Daily Weather History Graph

Search for Another Location

Airport:

Trip Planner

Search our weather history database for the weather conditions in past years. The results will help you decide how hot, cold, wet, or windy it might be!

Date:

Astronomy

May. 08, 2014 Rise Set
Actual Time 6:00 AM EDT 8:06 PM EDT
Civil Twilight 5:30 AM EDT 8:36 PM EDT
Nautical Twilight 4:54 AM EDT 9:12 PM EDT
Astronomical Twilight 4:15 AM EDT 9:51 PM EDT
Moon 2:07 PM EDT (5/8) 2:27 AM EDT (5/8)
Length of Visible Light 15h 05m
Length of Day
14h 06m
Waxing Gibbous, 64% of the Moon is Illuminated
May 8
Waxing Gibbous
May 14
Full
May 21
Last Quarter
May 28
New
Jun 5
First Quarter

Hourly Weather History & Observations

Time (EDT) Temp. Heat Index Dew Point Humidity Pressure Visibility Wind Dir Wind Speed Gust Speed Precip Events Conditions
12:43 AM 55.4 °F - 51.8 °F 88% 30.15 in 10.0 mi East 4.6 mph - N/A   Overcast
12:54 AM 55.9 °F - 52.0 °F 87% 30.15 in 10.0 mi NE 3.5 mph - N/A   Overcast
1:54 AM 57.0 °F - 51.1 °F 81% 30.14 in 10.0 mi NE 4.6 mph - N/A   Overcast
2:54 AM 57.0 °F - 53.1 °F 87% 30.12 in 10.0 mi East 4.6 mph - 0.00 in   Overcast
3:54 AM 57.0 °F - 52.0 °F 83% 30.12 in 10.0 mi NE 4.6 mph - N/A   Overcast
4:40 AM 57.2 °F - 51.8 °F 82% 30.11 in 10.0 mi Calm Calm - N/A   Overcast
4:54 AM 57.0 °F - 52.0 °F 83% 30.11 in 10.0 mi NNE 3.5 mph - N/A   Overcast
5:54 AM 57.0 °F - 52.0 °F 83% 30.11 in 5.0 mi Calm Calm - 0.00 in   Light Drizzle
6:45 AM 57.2 °F - 53.6 °F 88% 30.13 in 4.0 mi Calm Calm - 0.00 in   Light Drizzle
6:54 AM 55.9 °F - 53.1 °F 90% 30.13 in 4.0 mi NE 3.5 mph - 0.00 in   Light Drizzle
6:59 AM 55.4 °F - 53.6 °F 94% 30.13 in 2.0 mi Calm Calm - 0.00 in   Light Drizzle
7:47 AM 57.2 °F - 53.6 °F 88% 30.14 in 1.5 mi Calm Calm - 0.00 in   Light Drizzle
7:54 AM 57.0 °F - 54.0 °F 89% 30.14 in 1.5 mi Calm Calm - 0.00 in   Light Drizzle
8:15 AM 57.2 °F - 53.6 °F 88% 30.14 in 1.5 mi Variable 3.5 mph - 0.00 in   Light Drizzle
8:54 AM 57.9 °F - 55.0 °F 90% 30.14 in 1.8 mi Calm Calm - 0.00 in   Light Drizzle
8:59 AM 57.2 °F - 55.4 °F 94% 30.14 in 2.5 mi Calm Calm - 0.00 in   Overcast
9:48 AM 60.8 °F - 55.4 °F 82% 30.14 in 3.0 mi North 5.8 mph - 0.00 in   Overcast
9:54 AM 60.1 °F - 55.9 °F 86% 30.14 in 3.0 mi NE 3.5 mph - 0.00 in   Overcast
10:54 AM 62.1 °F - 55.9 °F 80% 30.13 in 5.0 mi Calm Calm - N/A   Haze
11:19 AM 64.4 °F - 57.2 °F 77% 30.11 in 6.0 mi SW 6.9 mph - N/A   Haze
11:29 AM 64.4 °F - 57.2 °F 77% 30.11 in 6.0 mi WSW 5.8 mph - N/A   Haze
11:54 AM 66.9 °F - 57.9 °F 73% 30.11 in 8.0 mi Variable 3.5 mph - N/A   Scattered Clouds
12:54 PM 72.0 °F - 59.0 °F 64% 30.09 in 10.0 mi Calm Calm - N/A   Scattered Clouds
1:54 PM 75.9 °F - 59.0 °F 56% 30.07 in 10.0 mi ENE 3.5 mph - N/A   Scattered Clouds
2:54 PM 81.0 °F 81.6 °F 60.1 °F 49% 30.04 in 10.0 mi NE 5.8 mph - N/A   Scattered Clouds
3:54 PM 82.0 °F 82.4 °F 60.1 °F 47% 30.01 in 10.0 mi ESE 4.6 mph - N/A   Scattered Clouds
4:54 PM 81.0 °F 81.9 °F 62.1 °F 52% 30.01 in 10.0 mi East 9.2 mph - N/A   Scattered Clouds
5:54 PM 80.1 °F 81.2 °F 62.1 °F 54% 30.01 in 10.0 mi SE 6.9 mph - N/A   Mostly Cloudy
6:54 PM 77.0 °F - 61.0 °F 58% 30.01 in 10.0 mi SE 8.1 mph - N/A   Mostly Cloudy
7:54 PM 73.9 °F - 60.1 °F 62% 30.02 in 10.0 mi SSE 3.5 mph - N/A   Scattered Clouds
8:54 PM 71.1 °F - 60.1 °F 68% 30.05 in 10.0 mi ESE 3.5 mph - N/A   Partly Cloudy
9:54 PM 69.1 °F - 60.1 °F 73% 30.07 in 10.0 mi East 5.8 mph - N/A   Partly Cloudy
10:54 PM 66.9 °F - 61.0 °F 81% 30.07 in 8.0 mi East 8.1 mph - N/A   Partly Cloudy
11:54 PM 66.0 °F - 59.0 °F 78% 30.09 in 9.0 mi East 9.2 mph - N/A   Partly Cloudy